map of RES home
Great Circle Mapper logo
RES - Airport
Location
City:  Resistencia, Argentina
ICAO / IATA:SARE / RES

Details
Type:Airport (Aerodrome, Airfield)
Use:Public/Civil
Latitude:2727'00"S (-27.449985)
Longitude:5903'22"W (-59.056124)
Datum:WGS 1984
Elevation:173 ft (53 m)
Runways:1
Longest:9088 × 147 ft (2770 × 45 m), paved

Time
Time Zone:UTC-3
Local Time:

Weather
METAR:SARE 022100Z 11005KT 9999 SCT030 BKN200 26/19 Q1007
TAF:SARE 021700Z 0218/0318 14010KT 999 FEW020 FEW040TCU SCT100 TX31/0318Z TN20/0310Z
BECMG 0223/0301 11010KT CAVOK
BECMG 0307/0310 9999 FEW015 SCT025 FEW040TCU SCT100

Related Locations
Nearby:
Farthest:WNZ: 12441 mi / 20021 km
Wenzhou [Intl], Zhejiang, CN

Find:

   beyond  
but within

Other Information
Maps:
NOTAMs:
Links:
Sources:

  
flag of Argentina   

Sectional Chart

Flight Planning
at skyvector.com

Satellite Image

Google Maps Satellite View

 

Copyright © 2004-2014 Karl L. Swartz. All rights reserved.
The Great Circle Mapper name and logo are trademarks of the Great Circle Mapper.
All other trademarks mentioned herein belong to their respective owners.
Please see credits for attibutions and further copyright information.

  Follow gcmap on Facebook Follow gcmap on Twitter

hCard Microformat

Geo Microformat